Location: Kershaw
(34.5481°N, 80.5823°W)
Time: 00:57:21
(UTC+00:00)

Altair - Pass Details

Date: 04 October 2022
Orbit: 1501 x 1682 km, 47.2° (Epoch: 05 December)

Event Time Altitude Azimuth Distance (km) Brightness Sun altitude
Exits shadow 10:02:43 20° 247° (WSW) 3,078 8.5 -16.6°
Maximum altitude 10:10:03 73° 328° (NNW) 1,687 7.6 -15.1°
Drops below altitude 10° 10:20:05 10° 53° (NE) 3,914 10.5 -13.0°
Sets 10:23:19 0° 56° (NE) 4,918 11.2 -12.3°
